Regional Weather Roundup
Issued by NWS

Home | Current Version | Previous Version | Graphics & Text | Print | Product List | Glossary On
Versions: 1 2 3 4 5 6 7 8 9 10 11 12 13 14 15 16 17 18 19 20 21 22 23 24 25 26 27 28 29 30 31 32 33 34 35 36 37 38 39 40 41 42 43 44 45 46 47 48 49 50
000
ASUS44 KMEG 250500
RWRTN
TENNESSEE HOURLY STATE WEATHER ROUNDUP
NATIONAL WEATHER SERVICE MEMPHIS TN
1200 AM CDT MON JUL 25 2016

TNZ002-004-019-021-049-052-054-088>092-250600-
WEST TENNESSEE

CITY           SKY/WX    TMP DP  RH WIND       PRES   REMARKS
MEMPHIS INTL   PTCLDY    83  76  79 S8        29.97S HX  91
NWS MEMPHIS      N/A     80 N/A N/A MISG        N/A
JACKSON        CLEAR     77  76  96 S5        29.97F
DYERSBURG      CLEAR     81  75  83 MISG      29.95F
UNION CITY     CLEAR     79  79 100 S3        29.94F
PARIS          CLEAR     75  73  94 S3        29.97F
$$

TNZ008-025-027-028-033-062-065-066-250600-
NORTH MIDDLE TENNESSEE

CITY           SKY/WX    TMP DP  RH WIND       PRES   REMARKS
NASHVILLE      MOCLDY    81  72  74 S3        29.98F
CLARKSVILLE    CLEAR     81  75  82 S3        29.96F
CROSSVILLE     CLEAR     73  72  96 CALM      30.09F
$$

TNZ061-075-076-078-094-096-097-250600-
SOUTH MIDDLE TENNESSEE

CITY           SKY/WX    TMP DP  RH WIND       PRES   REMARKS
$$

TNZ017-018-042-046-047-250600-
NORTHEAST TENNESSEE

CITY           SKY/WX    TMP DP  RH WIND       PRES   REMARKS
TRI CITIES     CLEAR     74  69  85 CALM      30.07F
$$

TNZ012-013-036-069-073-074-250600-
CENTRAL EAST TENNESSEE

CITY           SKY/WX    TMP DP  RH WIND       PRES   REMARKS
KNOXVILLE      PTCLDY    80  74  81 S7        30.03F
OAK RIDGE      CLEAR     80  72  76 CALM      30.04F
GATLINBURG     CLEAR     75  70  83 CALM      30.04F
$$

TNZ083-085-099-250600-
SOUTHEAST TENNESSEE

CITY           SKY/WX    TMP DP  RH WIND       PRES   REMARKS
CHATTANOOGA    CLOUDY    77  74  90 CALM      30.03F
$$

SKY/WX REPORTED AS FAIR MEANS FEW OR NO CLOUDS BELOW
12 THOUSAND FEET.





USA.gov is the U.S. government's official web portal to all federal, state and local government web resources and services.